Regional Weather Roundup
Issued by NWS

Home | Current Version | Previous Version | Text Only | Print | Product List | Glossary Off
Versions: 1 2 3 4 5 6 7 8 9 10 11 12 13 14 15 16 17 18 19 20 21 22 23 24 25 26 27 28 29 30 31 32 33 34 35 36 37 38 39 40 41 42 43 44 45 46 47 48 49 50

000
ASUS43 KLOT 012000
RWRIL

ILLINOIS REGIONAL WEATHER ROUNDUP
NATIONAL WEATHER SERVICE CHICAGO/ROMEOVILLE IL
300 PM CDT WED OCT 01 2014

NOTE: "FAIR" INDICATES FEW OR NO CLOUDS BELOW 12,000 FEET WITH NO
SIGNIFICANT WEATHER AND/OR OBSTRUCTIONS TO VISIBILITY.

* THESE STATIONS ARE NOT UNDER NWS QUALITY CONTROL. THEY ALSO MAY NOT
  REPORT WEATHER SUCH AS PRECIPITATION OR FOG.

ILZ001-002-007-009-015-016-024-012100-
NORTHWEST ILLINOIS

CITY           SKY/WX    TMP DP  RH WIND       PRES   REMARKS
MOLINE         CLOUDY    72  56  57 S15G24    29.81F
$$

ILZ003-004-008-010-011-017-018-012100-
NORTH CENTRAL ILLINOIS

CITY           SKY/WX    TMP DP  RH WIND       PRES   REMARKS
ROCKFORD       PTSUNNY   73  54  51 SE12      29.87F
$$

ILZ005-006-012>014-019>023-012100-
NORTHEAST ILLINOIS

CITY           SKY/WX    TMP DP  RH WIND       PRES   REMARKS
CHICAGO-OHARE  PTSUNNY   70  52  52 E14       29.91F
CHICAGO-MIDWAY NOT AVBL
AURORA         PTSUNNY   72  54  53 SE14      29.90F
WAUKEGAN       NOT AVBL
DUPAGE AIRPORT PTSUNNY   71  54  54 SE12      29.90F
WHEELING       MOSUNNY   67  52  58 SE13      29.93F
NORTHERLY ISL    N/A     64  53  67 E14         N/A
$$

LMZ740>746-012100-
SOUTHERN LAKE MICHIGAN

STATION/POSITION SKY/WX   TEMP    WIND        PRES    VSBY  WAVE
                          AIR SEA DIR/SP/G                  HT/PER
                          (F)     (DEG/KT/KT) (MB)    (MI)  (FT/S)
SOUTHERN BUOY              57 61  150/ 12/ 14 1016.0F         1/ 3
WAUKEGAN HARBOR            59     130/ 15/ 17   N/A
HARRISON CRIB              61     110/ 14/ 17   N/A
BURNHAM HARBOR             64      90/ 11/ 12   N/A
CALUMET HARBOR             65      60/  7/ 11 1012.9F
MICHIGAN CITY              66     110/  8/ 11   N/A
MICHIGAN CITY 6N           67 65  140/  8/ 10   N/A           1/ 2
ST. JOSEPH                 65 63  130/  8/ 10   N/A           1/ 2
$$

ILZ025>027-034>036-040-047-049-050-058-095>099-012100-
WEST-CENTRAL ILLINOIS

CITY           SKY/WX    TMP DP  RH WIND       PRES   REMARKS
QUINCY         LGT RAIN  64  62  93 SE8       29.84F FOG
$$

ILZ028>032-037-038-041>044-048-051>054-059>061-012100-
CENTRAL ILLINOIS

CITY           SKY/WX    TMP DP  RH WIND       PRES   REMARKS
DECATUR        PTSUNNY   82  58  43 S13       29.88F HX  82
PEORIA         CLOUDY    79  60  52 SE6       29.85F HX  80
SPRINGFIELD    PTSUNNY   84  60  44 S12       29.85F HX  84
TAYLORVILLE    NOT AVBL
$$

ILZ033-039-045-046-055>057-062-063-012100-
EAST-CENTRAL ILLINOIS

CITY           SKY/WX    TMP DP  RH WIND       PRES   REMARKS
MATTOON        MOSUNNY   81  58  45 S10       29.89F HX  81
$$

ILZ079-100>102-012100-
SOUTHWEST ILLINOIS

CITY           SKY/WX    TMP DP  RH WIND       PRES   REMARKS
ALTON          PTSUNNY   86  54  32 S14       29.84F HX  84
BELLEVILLE     MOSUNNY   85  65  51 E9        29.83F HX  86
CAHOKIA*       MOSUNNY   88  64  44 SE14      29.82F HX  89
$$

ILZ064>066-069>071-074>076-080>082-084>086-088>090-092>094-012100-
SOUTH-CENTRAL ILLINOIS

CITY           SKY/WX    TMP DP  RH WIND       PRES   REMARKS
CARBONDALE     MOSUNNY   85  62  46 S15G21    29.87F HX  85
MARION         PTSUNNY   88  61  40 S14       29.89F HX  88
$$

ILZ067-068-072-073-078-083-087-091-012100-
SOUTHEAST ILLINOIS

CITY           SKY/WX    TMP DP  RH WIND       PRES   REMARKS
LAWRENCEVILLE  PTSUNNY   84  57  39 SE6       29.91F HX  83
$$

ABBREVIATIONS USED IN REMARKS
   TC - TEMPERATURE IN CELSIUS
  WCI - WIND CHILL INDEX
   HX - HEAT INDEX
  VSB - VISIBILITY
$$



USA.gov is the U.S. government's official web portal to all federal, state and local government web resources and services.